Location: Aufkirchen
(47.9603°N, 11.3653°E)
Time: 16:05:45
(UTC+01:00)

Transit 4A - Pass Details

Date: 27 November 2020
Orbit: 864 x 980 km, 66.8° (Epoch: 26 January)

Event Time Altitude Azimuth Distance (km) Brightness Sun altitude
Rises 12:08:29 0° 290° (WNW) 3,676 10.8 20.8°
Reaches altitude 10° 12:12:21 10° 313° (NW) 2,737 10.1 20.8°
Maximum altitude 12:15:57 15° 347° (NNW) 2,372 9.6 20.7°
Drops below altitude 10° 12:19:35 10° 22° (NNE) 2,738 9.9 20.7°
Sets 12:23:27 0° 45° (NE) 3,677 10.6 20.6°
